Powrót do katalogu

YUNHAI 2-2F

AktywnyPogodaLEO
NORAD 59285·PAYLOAD·🇨🇳 China

Wystrzelony Mar 21, 2024 z Jiuquan Satellite Launch Center

Loading…

Następne Przeloty (najbliższe 24 godziny)

TLE

ŚwieżeSource: Space-Track

Epoka: Sep 14, 2026, 14:04 UTC

1 59285U 24052F   26257.58653506 -.00000066  00000-0  37956-4 0  9999
2 59285  50.0113 184.0974 0004993 132.3698 227.7640 14.28015871131933

Śledź YUNHAI 2-2F w czasie rzeczywistym z AllMySat

Download on the App Store